Regional Weather Roundup
Issued by NWS

Home | Current Version | Previous Version | Graphics & Text | Print | Product List | Glossary On
Versions: 1 2 3 4 5 6 7 8 9 10 11 12 13 14 15 16 17 18 19 20 21 22 23 24 25 26 27 28 29 30 31 32 33 34 35 36 37 38 39 40 41 42 43 44 45 46 47 48 49 50
348
ASUS43 KLMK 260102
RWRKY
KENTUCKY REGIONAL WEATHER ROUNDUP
NATIONAL WEATHER SERVICE LOUISVILLE KY
900 PM EDT MON JUL 25 2016

NOTE "FAIR" INDICATES FEW OR NO CLOUDS BELOW 12,000 FEET
WITH NO SIGNIFICANT WEATHER AND/OR OBSTRUCTIONS TO VISIBILITY.

KYZ001>023-026-027-061>063-070>075-260200-
WESTERN AND SOUTH CENTRAL KENTUCKY

CITY           SKY/WX    TMP DP  RH WIND       PRES   REMARKS
PADUCAH        CLOUDY    79  75  87 CALM      29.96S
HENDERSON      CLOUDY    73  70  88 CALM      29.95S
OWENSBORO      CLOUDY    78  76  94 S5        29.96F
HOPKINSVILLE   CLOUDY    76  73  91 E8        30.01F
BOWLING GREEN  CLOUDY    76  73  91 SE5       30.00S
GLASGOW        NOT AVBL
$$

KYZ024-025-028>034-038-045-046-053-260200-
NORTH CENTRAL KENTUCKY

CITY           SKY/WX    TMP DP  RH WIND       PRES   REMARKS
LOUISVILLE/SDF CLOUDY    79  73  82 CALM      29.98F
LOUISVILLE/LOU CLOUDY    80  73  79 S5        29.99F
FORT KNOX      CLOUDY    76  74  94 W2        29.98F
$$

KYZ035>037-039>044-047>052-055>060-089>105-260200-
NORTHEAST KENTUCKY

CITY           SKY/WX    TMP DP  RH WIND       PRES   REMARKS
LEXINGTON      CLOUDY    77  71  82 SW3       30.03R
COVINGTON      CLOUDY    81  76  84 CALM      30.00R
FRANKFORT      MOCLDY    77  70  79 CALM      30.01R
$$

KYZ054-064>069-076>088-106>120-260200-
SOUTHEAST KENTUCKY

CITY           SKY/WX    TMP DP  RH WIND       PRES   REMARKS
JACKSON        CLOUDY    76  72  87 CALM      30.05R
LONDON         CLOUDY    78  71  79 SW9       30.07R THUNDER
SOMERSET       LGT RAIN  72  72 100 E3        30.04F
MIDDLESBORO    MOCLDY    81  72  75 CALM      30.07R
MONTICELLO     PTCLDY   N/A N/A N/A VRB7      30.06R
$$





USA.gov is the U.S. government's official web portal to all federal, state and local government web resources and services.